Location: Spangle
(47.4302°N, 117.3779°W)
Time: 00:08:00
(UTC+00:00)

ARIANE 6 FM1 Upper Stage - Visible Passes

Search period start: 17 April 2026 00:00
Search period end: 27 April 2026 00:00
Orbit: 525 x 604 km, 62.0° (Epoch: 16 April)

Date Brightness Start Highest point End Pass type
(mag) Time Alt. Az. Time Alt. Az. Time Alt. Az.
17 Apr 5.4 03:55:43 10° WNW 03:58:29 17° NNW 04:01:13 10° NNE visible
17 Apr 5.8 05:38:35 10° N 05:39:01 10° N 05:39:27 10° N visible
17 Apr 5.2 07:17:01 10° NNW 07:19:36 16° NNE 07:19:49 16° NNE visible
17 Apr 5.3 08:55:22 10° NW 08:55:46 13° NW 08:55:46 13° NW visible
18 Apr 5.5 03:55:57 10° WNW 03:58:19 15° NNW 04:00:40 10° NNE visible
18 Apr 5.7 05:38:21 10° N 05:38:56 10° N 05:39:31 10° NNE visible
18 Apr 5.1 07:16:29 10° NNW 07:19:04 19° NNE 07:19:04 19° NNE visible
18 Apr 5.5 08:54:57 10° NW 08:55:01 10° NW 08:55:01 10° NW visible
19 Apr 5.5 03:56:14 10° NW 03:58:10 13° NNW 04:00:06 10° NNE visible
19 Apr 5.6 05:37:51 10° N 05:38:50 11° N 05:39:50 10° NNE visible
19 Apr 4.9 07:15:57 10° NNW 07:18:22 22° NNE 07:18:22 22° NNE visible
20 Apr 5.5 03:56:32 10° NW 03:58:03 12° NNW 03:59:33 10° N visible
20 Apr 5.5 05:37:19 10° N 05:38:44 12° NNE 05:40:10 10° NNE visible
20 Apr 4.8 07:15:26 10° NNW 07:17:41 24° N 07:17:41 24° N visible
21 Apr 5.6 03:56:53 10° NNW 03:57:56 11° N 03:58:59 10° N visible
21 Apr 5.3 05:36:45 10° NNW 05:38:37 13° NNE 05:40:28 10° NE visible
21 Apr 4.7 07:14:55 10° NNW 07:17:03 26° N 07:17:03 26° N visible
22 Apr 5.6 03:57:11 10° NNW 03:57:50 10° N 03:58:29 10° N visible
22 Apr 5.2 05:36:11 10° NNW 05:38:28 15° NNE 05:40:28 11° NE visible
22 Apr 4.6 07:14:26 10° NW 07:16:25 26° NNW 07:16:25 26° NNW visible
23 Apr 5.6 03:57:16 10° N 03:57:44 10° N 03:58:11 10° N visible
23 Apr 4.9 05:35:37 10° NNW 05:38:17 17° NNE 05:39:52 14° NE visible
23 Apr 4.6 07:13:59 10° NW 07:15:49 26° NNW 07:15:49 26° NNW visible
24 Apr 5.5 03:56:56 10° N 03:57:38 10° N 03:58:20 10° NNE visible
24 Apr 4.6 05:35:04 10° NNW 05:38:05 20° NNE 05:39:17 18° NE visible
24 Apr 4.6 07:13:34 10° NW 07:15:15 24° NW 07:15:15 24° NW visible
25 Apr 5.3 03:56:24 10° N 03:57:31 11° N 03:58:38 10° NNE visible
25 Apr 4.3 05:34:30 10° NNW 05:37:50 24° NNE 05:38:43 23° NE visible
25 Apr 4.7 07:13:11 10° NW 07:14:41 22° NW 07:14:41 22° NW visible
26 Apr 5.2 03:55:50 10° N 03:57:24 12° NNE 03:58:57 10° NE visible
26 Apr 3.9 05:33:59 10° NNW 05:37:34 31° NE 05:38:11 29° NE visible
26 Apr 4.9 07:12:53 10° NW 07:14:09 19° WNW 07:14:09 19° WNW visible
